QFA050 YSSY-YMML

Flight info

Callsign QFA050
Flight time N/A
Altitude 36000
Route GROOK1/16R WOL H65 LEECE Q29 ML
Aircraft A310/H-SDFGHIM1RTUWXY/LB1

Departure

Time 2026-04-22 07:08
Airport Sydney Kingsford Smith International Airport (YSSY)

Arrival

Time N/A
Airport Melbourne Airport (YMML)
Time Latitude Longitude Altitude Speed Heading
2026-04-22 06:54 -33.93157 151.17857 36 ft 0 kts 190°
2026-04-22 07:01 -33.93140 151.17860 35 ft 3 kts 190°
2026-04-22 07:01 -33.93123 151.17864 34 ft 3 kts 190°
2026-04-22 07:01 -33.93106 151.17868 36 ft 3 kts 190°
2026-04-22 07:02 -33.93090 151.17877 36 ft 3 kts 251°
2026-04-22 07:02 -33.93088 151.17890 35 ft 0 kts 281°
2026-04-22 07:03 -33.93081 151.17862 36 ft 6 kts 289°
2026-04-22 07:03 -33.93063 151.17795 35 ft 14 kts 288°
2026-04-22 07:03 -33.93017 151.17650 36 ft 20 kts 284°
2026-04-22 07:04 -33.92993 151.17514 36 ft 11 kts 281°
2026-04-22 07:04 -33.92972 151.17384 27 ft 20 kts 281°
2026-04-22 07:04 -33.92964 151.17338 27 ft 0 kts 281°
2026-04-22 07:05 -33.92964 151.17337 27 ft 0 kts 281°
2026-04-22 07:06 -33.92963 151.17331 27 ft 5 kts 281°
2026-04-22 07:06 -33.92956 151.17262 29 ft 10 kts 272°
2026-04-22 07:06 -33.92982 151.17197 26 ft 6 kts 206°
2026-04-22 07:06 -33.93026 151.17187 28 ft 8 kts 180°
2026-04-22 07:07 -33.93105 151.17203 26 ft 22 kts 169°
2026-04-22 07:07 -33.93495 151.17303 22 ft 98 kts 168°
2026-04-22 07:07 -33.94403 151.17537 32 ft 168 kts 168°
2026-04-22 07:07 -33.95597 151.17840 362 ft 200 kts 169°
2026-04-22 07:08 -33.97013 151.18188 1147 ft 213 kts 168°
2026-04-22 07:08 -33.98474 151.18529 2165 ft 225 kts 169°
2026-04-22 07:08 -34.00017 151.18848 3517 ft 206 kts 171°
2026-04-22 07:08 -34.01244 151.19037 5696 ft 154 kts 175°
2026-04-22 07:09 -34.02253 151.19068 6534 ft 157 kts 182°
2026-04-22 07:09 -34.03613 151.18925 6015 ft 231 kts 186°
2026-04-22 07:09 -34.05310 151.18688 5461 ft 251 kts 186°
2026-04-22 07:09 -34.07012 151.18449 5035 ft 241 kts 186°
2026-04-22 07:10 -34.08673 151.18212 4308 ft 242 kts 186°
2026-04-22 07:10 -34.10370 151.17962 3554 ft 256 kts 186°
2026-04-22 07:10 -34.12153 151.17689 3090 ft 257 kts 186°
2026-04-22 07:10 -34.13868 151.17411 3016 ft 242 kts 186°
2026-04-22 07:11 -34.15520 151.17141 2685 ft 241 kts 186°
2026-04-22 07:11 -34.17174 151.16789 2310 ft 241 kts 194°
2026-04-22 07:11 -34.18716 151.15968 2003 ft 241 kts 207°
2026-04-22 07:11 -34.20032 151.15007 2451 ft 203 kts 211°
2026-04-22 07:12 -34.20857 151.13622 2093 ft 215 kts 260°
2026-04-22 07:12 -34.20448 151.11846 1660 ft 233 kts 302°
2026-04-22 07:12 -34.19193 151.10537 1415 ft 253 kts 336°
2026-04-22 07:12 -34.17505 151.09842 1746 ft 258 kts 354°
2026-04-22 07:13 -34.15878 151.10453 1725 ft 252 kts 44°
2026-04-22 07:13 -34.14638 151.11892 1740 ft 234 kts 49°
2026-04-22 07:13 -34.14007 151.13459 1109 ft 192 kts 114°
2026-04-22 07:14 -34.14121 151.13773 17 ft 0 kts 263°